TimeEDT,TemperatureF,Dew PointF,Humidity,Sea Level PressureIn,VisibilityMPH,Wind Direction,Wind SpeedMPH,Gust SpeedMPH,PrecipitationIn,Events,Conditions,WindDirDegrees,DateUTC
12:53 AM,66.0,63.0,90,29.77,10.0,Calm,Calm,-,N/A,,Partly Cloudy,0,2013-06-08 04:53:00
1:53 AM,66.0,63.0,90,29.78,10.0,Calm,Calm,-,N/A,,Clear,0,2013-06-08 05:53:00
2:53 AM,64.0,62.1,93,29.78,10.0,WNW,3.5,-,N/A,,Clear,300,2013-06-08 06:53:00
3:53 AM,64.0,61.0,90,29.81,10.0,Calm,Calm,-,N/A,,Overcast,0,2013-06-08 07:53:00
4:53 AM,66.0,59.0,78,29.83,10.0,Calm,Calm,-,N/A,,Overcast,0,2013-06-08 08:53:00
5:53 AM,64.0,59.0,84,29.85,10.0,Calm,Calm,-,N/A,,Partly Cloudy,0,2013-06-08 09:53:00
6:53 AM,64.0,57.9,80,29.87,8.0,Calm,Calm,-,N/A,,Mostly Cloudy,0,2013-06-08 10:53:00
7:53 AM,64.0,61.0,90,29.89,6.0,Calm,Calm,-,N/A,,Mostly Cloudy,0,2013-06-08 11:53:00
8:53 AM,66.9,60.1,79,29.93,7.0,Variable,3.5,-,N/A,,Overcast,0,2013-06-08 12:53:00
9:53 AM,68.0,60.1,76,29.96,8.0,Calm,Calm,-,0.00,Rain,Light Rain,0,2013-06-08 13:53:00
10:53 AM,69.1,61.0,75,29.92,6.0,ENE,4.6,-,0.03,,Haze,70,2013-06-08 14:53:00
11:53 AM,72.0,61.0,68,29.95,9.0,West,3.5,-,N/A,,Clear,260,2013-06-08 15:53:00
12:53 PM,73.9,60.1,62,29.96,10.0,Variable,4.6,-,N/A,,Clear,0,2013-06-08 16:53:00
1:53 PM,75.9,57.9,54,29.95,10.0,Calm,Calm,-,N/A,,Clear,0,2013-06-08 17:53:00
2:53 PM,78.1,57.0,48,29.95,10.0,Calm,Calm,-,N/A,,Clear,0,2013-06-08 18:53:00
3:53 PM,80.1,57.9,47,29.94,10.0,SSW,5.8,-,N/A,,Clear,210,2013-06-08 19:53:00
4:53 PM,81.0,55.9,42,29.95,10.0,Variable,3.5,-,N/A,,Clear,0,2013-06-08 20:53:00
5:53 PM,81.0,57.9,45,29.96,10.0,South,5.8,-,N/A,,Clear,190,2013-06-08 21:53:00
6:53 PM,80.1,59.0,48,29.98,10.0,SSE,5.8,-,N/A,,Clear,160,2013-06-08 22:53:00
7:53 PM,77.0,60.1,56,30.00,10.0,SSE,5.8,-,N/A,,Clear,160,2013-06-08 23:53:00
8:53 PM,73.0,59.0,61,30.02,10.0,SSE,5.8,-,N/A,,Clear,160,2013-06-09 00:53:00
9:53 PM,70.0,61.0,73,30.05,10.0,South,3.5,-,N/A,,Clear,180,2013-06-09 01:53:00
10:53 PM,66.9,62.1,84,30.08,10.0,Calm,Calm,-,N/A,,Clear,0,2013-06-09 02:53:00
11:53 PM,64.9,62.1,90,30.08,9.0,Calm,Calm,-,N/A,,Clear,0,2013-06-09 03:53:00